User: anonymous   Login
Location: Stoke Bliss
(52.2667°N, 2.5167°W)
Time: 02:00:11
(UTC+00:00)
Language:

Cosmos 1602 - Orbit

View from above orbital plane
View from above orbital plane
View from above satellite
View from above satellite

Ground track
Ground track

The orbit data is extracted from the following two-line orbital elements,

1 15331U 84105A   21136.12210327  .00000633  00000-0  32732-4 0  9995
2 15331  82.5385   3.2915 0015504  34.9601 325.2645 15.14319944997737
Epoch (UTC): 16 May 2021 02:55:49
Eccentricity: 0.0015504
inclination: 82.5385°
perigee height: 512 km
apogee height: 534 km
right ascension of ascending node: 3.2915°
argument of perigee: 34.9601°
revolutions per day: 15.14319944
mean anomaly at epoch: 325.2645°
orbit number at epoch: 99773

The dashed part of the orbit path shows where the satellite is in the earth's shadow,  

DLR